User: anonymous   Login
Location: Unspecified
(0.0000°N, 0.0000°E)
Time: 07:26:36
(UTC+00:00)
Language:

USA 112 - Orbit

View from above orbital plane
View from above orbital plane
View from above satellite
View from above satellite

Ground track
Ground track

The orbit data is extracted from the following two-line orbital elements,

1 23609U 95034A   17284.91313642 0.00000000  00000-0  00000-0 0    05
2 23609  63.1881 137.1610 6917217 265.4424  19.4285  2.00608000    03
Epoch (UTC): 11 October 2017 21:54:54
Eccentricity: 0.6917217
inclination: 63.1881°
perigee height: 1808 km
apogee height: 38547 km
right ascension of ascending node: 137.1610°
argument of perigee: 265.4424°
revolutions per day: 2.00608000
mean anomaly at epoch: 19.4285°
orbit number at epoch: 0

The dashed part of the orbit path shows where the satellite is in the earth's shadow,  

DLR